Theta_e
306 307 306 310 327 353 351 351 352 352 353 356 354 354 354 354 354 354 352 349 349 352 350 353 354 357 352 353 349 346 342 338
304 304 307 307 345 352 349 347 347 346 350 352 352 352 352 351 352 351 349 347 343 346 347 347 352 350 349 345 343 341 338 337
304 304 306 305 312 345 347 345 345 344 348 348 348 349 351 351 351 351 350 347 343 344 342 344 349 348 348 343 339 339 336 334
303 304 305 306 310 317 347 348 347 350 347 345 342 343 346 346 348 350 351 348 345 341 340 342 346 347 347 345 340 337 335 332
305 306 305 305 308 315 322 338 349 350 349 349 346 344 344 342 343 345 348 349 344 342 340 341 343 346 345 344 340 337 333 332
306 306 306 308 309 310 316 319 317 321 340 347 349 349 350 348 345 345 344 346 346 341 342 340 343 344 344 343 340 336 333 332
305 307 309 309 308 310 316 316 320 327 330 332 337 340 345 348 350 350 346 346 347 343 340 343 342 344 344 342 340 337 333 331
305 307 308 307 308 311 314 315 313 317 321 320 319 318 317 325 339 348 351 346 347 345 344 343 344 341 343 341 340 335 334 334
308 311 311 316 317 319 320 319 318 315 315 314 313 313 316 317 322 334 348 350 346 345 343 344 343 343 341 340 340 335 332 330
308 310 312 314 314 316 319 320 320 322 321 321 321 319 320 319 321 324 327 342 345 345 343 342 343 342 342 339 336 331 333 330
309 311 311 312 313 314 317 320 322 323 324 323 321 321 320 319 320 321 327 337 344 345 345 344 343 343 341 341 338 334 331 329
307 308 308 308 312 318 321 321 321 322 322 319 318 317 316 318 319 322 323 332 342 343 342 342 343 343 340 342 336 330 335 331
305 306 307 312 316 315 318 316 316 316 316 316 316 315 316 320 321 321 325 329 336 331 331 332 338 339 338 337 334 336 337 335
306 306 307 307 308 310 313 311 314 316 316 316 315 314 314 315 315 318 321 327 330 335 332 331 336 340 335 335 336 337 338 337
303 303 305 306 306 306 308 307 307 309 310 314 313 313 313 314 313 316 319 321 325 324 326 328 331 338 342 342 340 339 339 336
302 302 303 303 304 304 304 304 304 306 307 308 310 313 312 313 314 314 316 320 325 324 319 318 319 329 335 336 338 338 338 336
301 301 301 302 302 302 303 303 303 304 305 305 306 307 307 310 313 312 318 322 327 328 326 321 321 327 337 333 335 335 335 335
300 301 301 302 302 301 302 303 302 303 303 304 306 306 307 308 309 312 314 319 322 326 328 330 330 333 336 332 332 332 333 332
298 298 300 300 301 300 300 301 301 301 301 302 303 305 306 307 308 310 315 317 319 322 325 329 330 331 331 328 328 329 329 328
297 298 299 299 299 299 299 300 300 301 302 303 303 304 306 306 307 308 311 315 317 320 323 326 329 329 323 324 326 322 319 316
Wind_Speed
6 7 6 2 6 5 6 9 10 10 8 8 7 5 7 8 10 9 8 5 5 5 3 5 5 11 5 7 6 4 5 4
4 5 8 5 5 10 9 7 7 6 4 6 5 5 7 7 10 12 8 6 6 5 5 6 6 4 6 4 3 4 5 6
2 2 5 5 3 6 8 8 8 7 5 5 5 6 5 5 6 8 8 7 7 6 6 5 6 5 6 5 4 5 5 6
5 3 3 2 2 6 6 9 8 7 7 7 6 5 5 5 5 7 10 7 7 6 6 7 7 7 7 7 7 7 8 6
9 8 6 4 2 4 8 6 7 8 8 7 6 6 5 5 5 6 9 8 7 8 7 8 8 8 9 7 7 6 5 5
10 10 8 8 6 8 7 4 9 8 7 5 4 4 4 5 5 5 7 10 10 7 7 9 10 9 8 7 7 7 7 6
10 10 10 9 9 7 8 9 7 7 5 3 4 4 4 5 4 5 5 6 8 5 6 7 8 10 10 9 8 8 7 7
7 6 8 4 6 6 7 3 4 4 4 3 3 3 2 2 2 4 6 7 9 5 6 6 4 7 9 9 11 8 7 10
4 7 9 10 9 10 8 8 4 3 2 2 1 2 3 3 1 1 4 5 9 12 10 10 7 5 10 13 12 11 9 6
8 10 10 10 8 8 8 8 7 5 4 2 3 3 4 2 4 6 5 7 9 10 12 11 11 9 7 2 9 4 8 8
9 10 8 7 7 7 7 7 8 6 6 3 3 2 2 3 3 4 5 6 7 8 11 10 12 11 11 6 3 1 4 5
8 7 8 7 5 6 7 7 7 4 4 4 3 3 2 3 3 2 5 7 7 7 11 8 11 9 9 11 6 5 11 8
8 9 9 7 6 5 6 6 5 3 3 3 2 2 3 2 3 5 4 6 6 6 6 7 8 7 10 11 8 11 11 10
7 6 7 7 9 9 8 8 8 9 8 5 3 4 6 5 5 4 4 3 6 6 8 8 10 8 10 10 13 15 11 9
8 8 7 6 8 6 5 7 6 8 9 9 8 8 7 7 6 4 5 4 4 7 6 6 5 8 10 12 12 14 11 10
5 5 5 6 6 7 8 7 7 8 8 9 10 11 7 6 6 5 4 4 5 8 7 6 8 7 5 8 9 11 11 11
3 3 2 2 2 3 5 3 3 6 7 6 8 9 11 10 12 8 5 6 4 7 8 7 8 7 7 9 8 10 10 10
5 5 6 5 3 2 4 4 3 4 6 5 7 10 10 9 10 11 9 7 6 6 9 9 9 9 7 6 5 7 8 6
4 5 5 5 5 3 3 4 3 4 5 6 7 9 12 12 9 11 11 7 8 6 6 10 12 7 7 4 4 6 6 3
4 6 8 7 5 2 3 4 5 5 6 7 9 9 10 11 11 11 13 11 8 6 6 9 10 7 2 4 6 5 8 8
Wind_Direction
35 353 93 111 206 157 179 180 171 172 166 165 177 179 180 186 181 184 190 187 199 204 200 213 212 216 215 217 222 222 219 219
3 350 327 76 154 170 169 182 187 183 151 161 177 185 191 189 195 187 187 187 193 200 194 206 212 220 220 218 220 236 241 236
177 343 320 83 150 165 183 169 173 174 157 163 176 189 199 217 202 198 192 195 198 197 205 192 206 208 213 223 223 225 232 239
306 317 279 332 127 160 176 185 180 170 176 172 175 172 194 197 207 207 206 205 201 195 194 204 206 207 216 216 213 218 230 227
232 239 243 245 162 154 173 183 171 172 170 171 176 185 177 192 214 215 214 214 215 211 196 198 208 213 214 223 228 226 231 234
220 221 212 198 188 171 201 203 174 171 164 175 184 193 187 190 191 196 206 218 219 216 219 212 199 202 209 210 217 219 226 229
257 228 202 209 205 181 175 165 174 164 148 110 149 178 189 199 214 213 206 235 263 206 229 250 229 206 201 203 216 213 211 222
275 249 257 312 18 17 46 69 100 91 65 45 23 4 311 304 230 223 211 188 218 199 240 237 235 229 220 205 210 208 216 212
20 35 74 88 68 77 78 93 93 99 82 66 360 295 257 254 289 327 229 222 234 232 234 227 237 224 236 219 208 206 221 204
43 68 75 77 91 93 78 80 63 48 53 31 45 6 334 331 316 318 282 238 229 224 226 222 221 229 241 307 257 202 204 196
70 76 79 86 92 105 102 95 94 83 88 79 39 20 344 349 331 319 300 291 247 221 232 230 228 233 237 215 250 273 264 237
55 63 55 60 74 92 100 103 104 107 110 99 128 175 217 234 255 268 296 286 245 226 217 195 213 241 252 230 193 216 246 248
28 34 27 34 88 109 134 140 146 158 109 109 117 283 246 285 309 328 330 303 284 230 228 233 222 196 226 249 237 229 235 231
43 43 52 41 27 24 31 15 358 355 343 322 286 286 294 316 312 318 309 291 288 275 212 225 243 235 221 216 241 243 216 187
31 23 24 33 53 27 40 25 8 352 344 325 306 279 265 269 279 274 302 308 286 255 237 231 233 228 208 211 216 231 224 240
79 55 28 23 22 24 30 26 14 8 1 350 342 328 310 291 266 262 267 253 264 274 265 259 246 234 230 219 220 232 230 221
123 83 77 47 44 56 99 64 14 12 349 341 335 334 332 325 307 290 269 267 255 279 272 257 259 242 223 204 218 226 227 218
338 2 351 336 342 59 51 48 21 333 326 320 324 310 308 310 310 298 284 276 274 297 304 287 269 269 261 228 208 241 229 237
341 330 318 300 297 62 29 6 344 319 308 307 307 304 309 307 305 308 294 277 277 291 295 302 291 250 249 232 235 243 222 115
336 318 302 307 338 15 342 327 317 303 302 312 301 296 300 304 304 306 307 291 282 281 299 307 292 298 15 130 118 102 106 113